| time (UTC) | temp F | wind direction | speed MPH | gust MPH | rain 1hr in | rain 24hr in | rain mn in | humidity % | barometer mb |
| 20260502163628 | 62 | 310 | 6.0 | 10.0 | 0.00 | 0.00 | 0.00 | 49 | 1025.8 |
| 20260502162557 | 63 | 301 | 5.0 | 11.0 | 0.00 | 0.00 | 0.00 | 48 | 1025.8 |
| 20260502161609 | 63 | 298 | 4.0 | 9.0 | 0.00 | 0.00 | 0.00 | 47 | 1025.8 |
| 20260502160537 | 63 | 335 | 6.0 | 10.0 | 0.00 | 0.00 | 0.00 | 46 | 1025.8 |
| 20260502151549 | 64 | 324 | 4.0 | 13.0 | 0.00 | 0.00 | 0.00 | 47 | 1025.8 |
| 20260502150539 | 66 | 286 | 5.0 | 14.0 | 0.00 | 0.00 | 0.00 | 45 | 1025.8 |
| 20260502130541 | 65 | 356 | 3.0 | 7.0 | 0.00 | 0.00 | 0.00 | 41 | 1026.9 |
| 20260502123631 | 64 | 313 | 4.0 | 9.0 | 0.00 | 0.00 | 0.00 | 42 | 1027.1 |
| 20260502122601 | 63 | 319 | 4.0 | 9.0 | 0.00 | 0.00 | 0.00 | 42 | 1027.2 |
| 20260502121551 | 64 | 306 | 4.0 | 9.0 | 0.00 | 0.00 | 0.00 | 43 | 1027.0 |
| 20260502120541 | 64 | 309 | 4.0 | 8.0 | 0.00 | 0.00 | 0.00 | 43 | 1027.1 |
| 20260502115531 | 63 | 325 | 5.0 | 11.0 | 0.00 | 0.00 | 0.00 | 42 | 1027.2 |
| 20260502114541 | 63 | 342 | 3.0 | 9.0 | 0.00 | 0.00 | 0.00 | 42 | 1027.3 |
| 20260502113612 | 63 | 290 | 4.0 | 8.0 | 0.00 | 0.00 | 0.00 | 42 | 1027.4 |
| 20260502112602 | 63 | 343 | 3.0 | 8.0 | 0.00 | 0.00 | 0.00 | 42 | 1027.4 |
| 20260502111552 | 65 | 322 | 3.0 | 7.0 | 0.00 | 0.00 | 0.00 | 40 | 1027.5 |
| 20260502110542 | 64 | 142 | 1.0 | 3.0 | 0.00 | 0.00 | 0.00 | 41 | 1027.6 |
| 20260502105532 | 64 | 351 | 3.0 | 9.0 | 0.00 | 0.00 | 0.00 | 43 | 1027.9 |
| 20260502104542 | 64 | 33 | 1.0 | 3.0 | 0.00 | 0.00 | 0.00 | 41 | 1027.9 |
| 20260502103613 | 63 | 320 | 2.0 | 6.0 | 0.00 | 0.00 | 0.00 | 41 | 1028.0 |
| 20260502102603 | 61 | 311 | 4.0 | 9.0 | 0.00 | 0.00 | 0.00 | 43 | 1027.9 |
| 20260502101553 | 61 | 342 | 3.0 | 9.0 | 0.00 | 0.00 | 0.00 | 43 | 1028.0 |
| 20260502100543 | 62 | 314 | 3.0 | 7.0 | 0.00 | 0.00 | 0.00 | 43 | 1028.1 |
| 20260502090544 | 61 | 70 | 2.0 | 3.0 | 0.00 | 0.00 | 0.00 | 43 | 1028.4 |
| 20260502070546 | 54 | 24 | 0.0 | 2.0 | 0.00 | 0.00 | 0.00 | 47 | 1028.4 |
| 20260502065538 | 53 | 0.0 | 0.0 | 0.00 | 0.00 | 0.00 | 48 | 1028.4 | |
| 20260502064527 | 53 | 0.0 | 0.0 | 0.00 | 0.00 | 0.00 | 47 | 1028.4 | |
| 20260502063516 | 52 | 0.0 | 0.0 | 0.00 | 0.00 | 0.00 | 44 | 1028.2 | |
| 20260502062607 | 51 | 0.0 | 0.0 | 0.00 | 0.00 | 0.00 | 46 | 1028.3 | |
| 20260502061618 | 51 | 0.0 | 0.0 | 0.00 | 0.00 | 0.00 | 47 | 1028.3 | |
| 20260502060547 | 50 | 90 | 1.0 | 1.0 | 0.00 | 0.00 | 0.00 | 48 | 1028.2 |
| 20260502055538 | 50 | 0.0 | 1.0 | 0.00 | 0.00 | 0.00 | 49 | 1028.3 | |
| 20260502054527 | 49 | 0.0 | 0.0 | 0.00 | 0.00 | 0.00 | 50 | 1028.2 | |
| 20260502053518 | 49 | 0.0 | 0.0 | 0.00 | 0.00 | 0.00 | 50 | 1028.1 | |
| 20260502052608 | 49 | 0.0 | 0.0 | 0.00 | 0.00 | 0.00 | 51 | 1028.2 | |
| 20260502051558 | 49 | 0.0 | 0.0 | 0.00 | 0.00 | 0.00 | 51 | 1028.2 | |
| 20260502050548 | 49 | 0.0 | 0.0 | 0.00 | 0.00 | 0.00 | 50 | 1028.1 | |
| 20260502045558 | 51 | 0.0 | 0.0 | 0.00 | 0.00 | 0.00 | 48 | 1027.9 | |
| 20260502044528 | 50 | 154 | 2.0 | 4.0 | 0.00 | 0.00 | 0.00 | 46 | 1027.8 |
| 20260502043538 | 51 | 147 | 1.0 | 3.0 | 0.00 | 0.00 | 0.00 | 45 | 1027.8 |
| 20260502042609 | 52 | 272 | 1.0 | 2.0 | 0.00 | 0.00 | 0.00 | 42 | 1027.8 |
| 20260502041559 | 53 | 211 | 0.0 | 2.0 | 0.00 | 0.00 | 0.00 | 42 | 1027.7 |
| 20260502040549 | 53 | 315 | 1.0 | 3.0 | 0.00 | 0.00 | 0.00 | 41 | 1027.8 |
| 20260502035559 | 53 | 165 | 2.0 | 4.0 | 0.00 | 0.00 | 0.00 | 41 | 1027.7 |
| 20260502034529 | 52 | 172 | 1.0 | 3.0 | 0.00 | 0.00 | 0.00 | 41 | 1027.8 |
| 20260502033519 | 52 | 0.0 | 1.0 | 0.00 | 0.00 | 0.00 | 41 | 1027.9 | |
| 20260502032610 | 49 | 0.0 | 0.0 | 0.00 | 0.00 | 0.00 | 43 | 1027.8 | |
| 20260502031559 | 50 | 0.0 | 1.0 | 0.00 | 0.00 | 0.00 | 42 | 1027.8 | |
| 20260502030630 | 53 | 171 | 1.0 | 2.0 | 0.00 | 0.00 | 0.00 | 39 | 1027.7 |
| 20260502025601 | 53 | 165 | 1.0 | 2.0 | 0.00 | 0.00 | 0.00 | 38 | 1027.9 |
| 20260502024531 | 53 | 0.0 | 0.0 | 0.00 | 0.00 | 0.00 | 39 | 1028.0 | |
| 20260502023521 | 53 | 0.0 | 0.0 | 0.00 | 0.00 | 0.00 | 39 | 1027.9 | |
| 20260502022612 | 53 | 0.0 | 0.0 | 0.00 | 0.00 | 0.00 | 39 | 1027.9 | |
| 20260502021602 | 53 | 0.0 | 0.0 | 0.00 | 0.00 | 0.00 | 38 | 1028.0 | |
| 20260502020553 | 53 | 196 | 0.0 | 1.0 | 0.00 | 0.00 | 0.00 | 38 | 1028.0 |
| 20260502015543 | 52 | 0.0 | 0.0 | 0.00 | 0.00 | 0.00 | 38 | 1028.0 | |
| 20260502014534 | 51 | 264 | 0.0 | 1.0 | 0.00 | 0.00 | 0.00 | 40 | 1028.0 |
| 20260502013523 | 52 | 0.0 | 0.0 | 0.00 | 0.00 | 0.00 | 41 | 1028.1 | |
| 20260502012614 | 52 | 107 | 0.0 | 2.0 | 0.00 | 0.00 | 0.00 | 39 | 1027.9 |
| 20260502011604 | 51 | 304 | 0.0 | 2.0 | 0.00 | 0.00 | 0.00 | 40 | 1027.9 |
| 20260502010554 | 52 | 127 | 0.0 | 2.0 | 0.00 | 0.00 | 0.00 | 39 | 1028.0 |
| 20260502005545 | 53 | 318 | 1.0 | 3.0 | 0.00 | 0.00 | 0.00 | 37 | 1028.0 |
| 20260502004535 | 54 | 295 | 1.0 | 4.0 | 0.00 | 0.00 | 0.00 | 36 | 1028.1 |
| 20260502003524 | 53 | 242 | 2.0 | 4.0 | 0.00 | 0.00 | 0.00 | 36 | 1028.0 |
| 20260502002615 | 53 | 188 | 0.0 | 4.0 | 0.00 | 0.00 | 0.00 | 35 | 1028.1 |
| 20260502001605 | 53 | 259 | 1.0 | 3.0 | 0.00 | 0.00 | 0.00 | 35 | 1028.2 |
| 20260502000555 | 54 | 293 | 1.0 | 7.0 | 0.00 | 0.00 | 0.00 | 33 | 1028.2 |
| 20260501235605 | 53 | 266 | 0.0 | 2.0 | 0.00 | 0.00 | 0.00 | 34 | 1028.3 |
| 20260501234535 | 52 | 113 | 1.0 | 2.0 | 0.00 | 0.00 | 0.00 | 36 | 1028.1 |
| 20260501233525 | 53 | 210 | 0.0 | 2.0 | 0.00 | 0.00 | 0.00 | 34 | 1028.2 |
| 20260501232616 | 53 | 328 | 0.0 | 3.0 | 0.00 | 0.00 | 0.00 | 33 | 1028.3 |
| 20260501231606 | 54 | 120 | 1.0 | 2.0 | 0.00 | 0.00 | 0.00 | 33 | 1028.4 |
| 20260501230556 | 55 | 153 | 1.0 | 4.0 | 0.00 | 0.00 | 0.00 | 29 | 1028.4 |
| 20260501225546 | 54 | 163 | 2.0 | 6.0 | 0.00 | 0.00 | 0.00 | 29 | 1028.5 |
| 20260501224536 | 53 | 172 | 1.0 | 3.0 | 0.00 | 0.00 | 0.00 | 29 | 1028.2 |
| 20260501223526 | 54 | 169 | 2.0 | 3.0 | 0.00 | 0.00 | 0.00 | 28 | 1028.5 |
| 20260501222516 | 53 | 165 | 2.0 | 3.0 | 0.00 | 0.00 | 0.00 | 27 | 1028.6 |
| 20260501221607 | 53 | 169 | 2.0 | 3.0 | 0.00 | 0.00 | 0.00 | 27 | 1028.5 |
| 20260501220557 | 54 | 234 | 1.0 | 3.0 | 0.00 | 0.00 | 0.00 | 27 | 1028.4 |
| 20260501215548 | 54 | 162 | 2.0 | 6.0 | 0.00 | 0.00 | 0.00 | 26 | 1028.2 |
| 20260501214538 | 55 | 155 | 2.0 | 9.0 | 0.00 | 0.00 | 0.00 | 26 | 1028.0 |
| 20260501213528 | 55 | 157 | 4.0 | 9.0 | 0.00 | 0.00 | 0.00 | 26 | 1027.9 |
| 20260501212538 | 54 | 154 | 2.0 | 4.0 | 0.00 | 0.00 | 0.00 | 26 | 1027.9 |
| 20260501211628 | 53 | 162 | 3.0 | 7.0 | 0.00 | 0.00 | 0.00 | 29 | 1027.9 |
| 20260501210559 | 53 | 147 | 3.0 | 7.0 | 0.00 | 0.00 | 0.00 | 33 | 1027.8 |
| 20260501205548 | 53 | 139 | 0.0 | 6.0 | 0.00 | 0.00 | 0.00 | 34 | 1027.6 |
| 20260501204538 | 53 | 134 | 2.0 | 6.0 | 0.00 | 0.00 | 0.00 | 34 | 1027.5 |
| 20260501203528 | 53 | 177 | 3.0 | 6.0 | 0.00 | 0.00 | 0.00 | 33 | 1027.3 |
| 20260501202518 | 54 | 158 | 0.0 | 2.0 | 0.00 | 0.00 | 0.00 | 34 | 1027.3 |
| 20260501201609 | 55 | 137 | 1.0 | 6.0 | 0.00 | 0.00 | 0.00 | 31 | 1027.3 |
| 20260501200559 | 55 | 339 | 1.0 | 3.0 | 0.00 | 0.00 | 0.00 | 31 | 1027.0 |
| 20260501195549 | 55 | 282 | 3.0 | 7.0 | 0.00 | 0.00 | 0.00 | 32 | 1027.0 |
| 20260501194539 | 55 | 236 | 2.0 | 9.0 | 0.00 | 0.00 | 0.00 | 30 | 1026.7 |
| 20260501193529 | 56 | 204 | 3.0 | 8.0 | 0.00 | 0.00 | 0.00 | 30 | 1026.5 |
| 20260501192519 | 56 | 203 | 5.0 | 14.0 | 0.00 | 0.00 | 0.00 | 28 | 1026.4 |
| 20260501191610 | 56 | 197 | 3.0 | 9.0 | 0.00 | 0.00 | 0.00 | 29 | 1026.2 |
| 20260501190600 | 57 | 179 | 4.0 | 9.0 | 0.00 | 0.00 | 0.00 | 28 | 1026.2 |
| 20260501185550 | 57 | 177 | 3.0 | 10.0 | 0.00 | 0.00 | 0.00 | 29 | 1025.8 |
| 20260501184540 | 57 | 208 | 4.0 | 13.0 | 0.00 | 0.00 | 0.00 | 28 | 1025.8 |
| 20260501183530 | 57 | 178 | 5.0 | 11.0 | 0.00 | 0.00 | 0.00 | 28 | 1025.8 |
| 20260501182540 | 57 | 178 | 5.0 | 10.0 | 0.00 | 0.00 | 0.00 | 28 | 1025.6 |
| 20260501181631 | 57 | 149 | 6.0 | 8.0 | 0.00 | 0.00 | 0.00 | 32 | 1025.7 |
| 20260501180601 | 58 | 160 | 5.0 | 10.0 | 0.00 | 0.00 | 0.00 | 33 | 1025.4 |